Regional Weather Roundup
Issued by NWS

Home | Current Version | Previous Version | Graphics & Text | Print | Product List | Glossary On
Versions: 1 2 3 4 5 6 7 8 9 10 11 12 13 14 15 16 17 18 19 20 21 22 23 24 25 26 27 28 29 30 31 32 33 34 35 36 37 38 39 40 41 42 43 44 45 46 47 48 49 50
000
ASUS43 KOAX 211410
RWRNE

WEATHER ROUNDUP FOR NEBRASKA
NATIONAL WEATHER SERVICE OMAHA NE
900 AM CDT SAT APR 21 2018

NOTES: SATELLITE DATA IS BEING USED TO AUGMENT CLOUD COVER ABOVE
       12000 FEET.
       "FAIR" INDICATES FEW OR NO CLOUDS BELOW 12,000 FEET WITH NO
       SIGNIFICANT WEATHER AND/OR OBSTRUCTIONS TO VISIBILITY.


NEZ001>004-019>022-054>056-211500-
NEBRASKA PANHANDLE

CITY           SKY/WX    TMP DP  RH WIND       PRES   REMARKS
SCOTTSBLUFF    LGT SNOW  34  32  92 E5        30.22R VSB 1   WCI  30
ALLIANCE       LGT SNOW  33  33 100 SE3       30.21S VSB 1
CHADRON        CLOUDY    39  35  86 CALM      30.23R
GORDON         CLOUDY    37  36  93 SE7       30.23S WCI  32
KIMBALL        LGT SNOW  33  33 100 E5        30.19R WCI  28
SIDNEY         LGT SNOW  33  33 100 E7        30.20R FOG     WCI  27
$$

NEZ057>060-069>072-079>082-211500-
SOUTHWEST NEBRASKA

CITY           SKY/WX    TMP DP  RH WIND       PRES   REMARKS
NORTH PLATTE   LGT RAIN  39  37  92 E9        30.25R FOG     WCI  33
IMPERIAL       LGT RAIN  38  37  97 E12       30.21R WCI  30
LEXINGTON      LGT RAIN  40  38  93 NE5       30.26R
MCCOOK         CLOUDY    40  40 100 NE10      30.22R FOG     WCI  33
OGALLALA       LGT RAIN  38  36  95 E8        30.23S WCI  32
$$

NEZ005>010-023>029-035>040-094-211500-
NORTH CENTRAL NEBRASKA

CITY           SKY/WX    TMP DP  RH WIND       PRES   REMARKS
VALENTINE      CLOUDY    40  38  93 SE3       30.28F
AINSWORTH      DRIZZLE   38  38 100 CALM      30.29S
BROKEN BOW     LGT RAIN  40  38  93 N9        30.26R WCI  34
O`NEILL        CLOUDY    43  39  86 NE3       30.33R
ORD            CLOUDY    42  38  85 NE6       30.25F
THEDFORD       RAIN      39  38  94 SE6       30.27R WCI  35
$$

NEZ041-046>049-061>064-073>077-083>087-211500-
SOUTH CENTRAL NEBRASKA

CITY           SKY/WX    TMP DP  RH WIND       PRES   REMARKS
GRAND ISLAND   CLOUDY    43  38  82 NE12      30.26F
AURORA         CLOUDY    42  37  82 E8        30.25S
HASTINGS       CLOUDY    42  39  89 NE8       30.25R
HEBRON         CLOUDY    45  39  82 E5        30.25S
HOLDREGE       LGT RAIN  40  40  98 NE7       30.23S
KEARNEY        LGT RAIN  41  38  89 E8        30.25R
YORK             N/A     43  37  81 E6        30.26F
$$

NEZ011>018-030>034-042>045-211500-
NORTHEAST NEBRASKA

CITY           SKY/WX    TMP DP  RH WIND       PRES   REMARKS
NORFOLK        CLOUDY    45  35  68 E6        30.29R
ALBION         CLOUDY    45  36  71 NE8       30.28F
BLAIR          CLOUDY    48  30  50 E9        30.30R
COLUMBUS       CLOUDY    45  33  63 E9        30.30S
FREMONT        CLOUDY    48  32  52 E7        30.31R
TEKAMAH        CLOUDY    49  31  49 E7        30.31S
WAYNE          CLOUDY    44  37  77 NE5       30.32R
$$

NEZ050>053-065>068-078-088>093-211500-
SOUTHEAST NEBRASKA

CITY           SKY/WX    TMP DP  RH WIND       PRES   REMARKS
LINCOLN        LGT RAIN  50  26  39 SE12      30.30R
OMAHA EPPLEY   CLOUDY    50  28  42 E3        30.31R
BEATRICE       LGT RAIN  45  39  79 SE3       30.27F
FALLS CITY     CLOUDY    46  37  71 NE3       30.27R
NEBRASKA CITY  CLOUDY    48  37  67 SW7       30.27F
PLATTSMOUTH    CLOUDY    48  27  44 E5        30.29R
$$

NEZ044-045-051>053-067-211500-
OMAHA AREA

CITY           SKY/WX    TMP DP  RH WIND       PRES   REMARKS
OMAHA EPPLEY   CLOUDY    50  28  42 E3        30.31R
BLAIR          CLOUDY    48  30  50 E9        30.30R
FREMONT        CLOUDY    48  32  52 E7        30.31R
MILLARD        CLOUDY    50  29  44 E3        30.30R
OFFUTT AFB     CLOUDY    49  27  42 E7        30.29R
PLATTSMOUTH    CLOUDY    48  27  44 E5        30.29R
WAHOO          CLOUDY    48  28  46 E5        30.29S
$$




USA.gov is the U.S. government's official web portal to all federal, state and local government web resources and services.